Regional Weather Roundup
Issued by NWS Grand Forks, ND

Home | Current Version | Previous Version | Graphics & Text | Print | Product List | Glossary On
Versions: 1 2 3 4 5 6 7 8 9 10 11 12 13 14 15 16 17 18 19 20 21 22 23 24 25 26 27 28 29 30 31 32 33 34 35 36 37 38 39 40 41 42 43 44 45 46 47 48 49 50
000
ASUS43 KFGF 280531
RWRFGF
PRAIRIE TO PINES  WEATHER ROUNDUP
NATIONAL WEATHER SERVICE EASTERN NORTH DAKOTA/GRAND FORKS ND
1100 PM CST MON FEB 27 2017

 **SATELLITE DATA USED TO AUGMENT SKY COVER AT AUTOMATED STATIONS**
 *****  WEATHER ACROSS EASTERN NORTH DAKOTA  *****

CITY           SKY/WX    TMP DP  RH WIND       PRES   REMARKS
GRAND FORKS    CLOUDY    17  10  74 N16       29.93S WCI   2
GRAND FRKS AFB CLOUDY    15  11  83 N14       29.93F WCI   0
DEVILS LAKE    FLURRIES  12   8  84 NE9       29.92R WCI   0
FARGO          FAIR      24  20  84 N15       29.86S WCI  11
WAHPETON ARPT  CLOUDY    28  21  74 N14G20    29.81S WCI  17
$$

 ***** WEATHER ACROSS CENTRAL AND WESTERN NORTH DAKOTA  *****

CITY           SKY/WX    TMP DP  RH WIND       PRES   REMARKS
BISMARCK       CLOUDY    20  16  84 NE9       29.85F WCI   9
MINOT          FAIR       3  -2  79 NW3       29.88F
JAMESTOWN      CLOUDY    20  17  88 NE9       29.85S WCI   9
MINOT AFB      CLEAR     -4  -8  82 CALM      29.88F
GARRISON         N/A      0  -3  87 NE8       29.85F WCI -14
WILLISTON      FAIR       6   2  83 N5        29.84S WCI  -3
DICKINSON      CLOUDY    14  11  87 E9        29.75F WCI   2
HETTINGER      CLOUDY    19  15  84 E14       29.76F WCI   6
$$

 *****  OTHER AIRPORT OBSERVATIONS IN OUR AREA  *****

CITY           SKY/WX    TMP DP  RH WIND       PRES   REMARKS
WALHALLA       NOT AVBL
GRAFTON AIRPOR FAIR      14   9  79 N12       29.97S WCI   0
VALLEY CITY AR CLOUDY    19  19 100 NE6       29.88R WCI  11
CANDO          NOT AVBL
CAVALIER APRT    N/A     12   9  85 N9        29.98S WCI   0
GWINNER        FAIR      27  23  86 N16       29.84R WCI  14
SHEYENNE NWR     N/A     24  20  83 N12       29.95S WCI  13
ROLLA          FAIR       1   0  92 N7        29.91S WCI -11
 ***** THE ABOVE OBSERVATIONS ARE NON NWS ARE NOT QUALITY
       CONTROLLED AND MAY MIS-REPORT RAIN FOR SNOW...
$$

  *****  WEATHER ACROSS NORTHERN MINNESOTA  *****

CITY           SKY/WX    TMP DP  RH WIND       PRES   REMARKS
FLAG ISLAND    CLOUDY    14  10  85 N14       29.93F WCI  -1
WARROAD        FLURRIES  16  12  86 N9        29.93S WCI   4
ROSEAU         CLOUDY    16  10  79 N7        29.93S WCI   6
HALLOCK        CLOUDY    16   9  73 N10       29.96R WCI   3
THF RVR FALLS  MOCLDY    20  16  84 N13       29.90R WCI   7
BAUDETTE       LGT SNOW  21  18  88 N6        29.90S FOG     WCI  13
WASKISH        CLOUDY    25  14  63 NE7       29.87F WCI  17
CROOKSTON      CLOUDY    21  18  86 N12       29.91S WCI   9
STEPHEN NDAWN    N/A     16  12  86 N12         N/A  WCI   3
GREENBUSH NDAW   N/A     14  12  92 N8          N/A  WCI   3
$$
  *****  WEATHER ACROSS CENTRAL AND WEST MINNESOTA  *****

CITY           SKY/WX    TMP DP  RH WIND       PRES   REMARKS
FOSSTON        CLOUDY    21  16  79 N9        29.85F WCI  11
BEMIDJI        CLOUDY    26  15  64 N7        29.82F WCI  18
PARK RAPIDS    CLOUDY    31  21  66 NE3       29.79S
ELBOW LAKE     CLOUDY    32  30  93 CALM      29.80S
WADENA         CLOUDY    32  28  86 S8        29.78S WCI  25
DETROIT LAKES  FAIR      28  27  93 N5        29.81S WCI  23
MOORHEAD       FAIR      25  21  86 N15       29.85S WCI  12
FERGUS FALLS   MOCLDY    30  27  86 NE3       29.83F
MORRIS MN      FAIR      34  30  86 SE6       29.77F
STAPLES        CLOUDY    30  25  80 CALM      29.80S
$$
  *****  WEATHER ELSEWHERE ACROSS MINNESOTA  *****

CITY           SKY/WX    TMP DP  RH WIND       PRES   REMARKS
DULUTH         CLOUDY    27  24  89 E5        29.86S WCI  22
INTRNTL FALLS  CLOUDY    23  17  78 E6        29.89S WCI  16
ELY            CLOUDY    27  21  80 CALM      29.87S
CLOQUET        MOCLDY    27  25  93 E3        29.86S
WHEATON        CLOUDY    30  27  86 NW12      29.82F WCI  21
BRAINERD       CLOUDY    35  25  66 S8G20     29.82S
HIBBING        CLOUDY    27  23  85 SE7       29.84F WCI  19
ALEXANDRIA     MOCLDY    34  27  75 S3        29.80R
SAINT CLOUD    MOCLDY    32  26  78 CALM      29.83F
MINNEAPOLIS    CLOUDY    36  27  69 SE8       29.85F
$$

  *****  WEATHER ACROSS SOUTH DAKOTA  *****

CITY           SKY/WX    TMP DP  RH WIND       PRES   REMARKS
SIOUX FALLS    FAIR      36  31  82 E8        29.71F
BROOKINGS      CLOUDY    36  30  79 NE3       29.72F
WATERTOWN      CLOUDY    33  27  78 SE3       29.73F
HURON          FAIR      30  27  88 CALM      29.72F
SISSETON         N/A     30  28  92 N13       29.79F WCI  20
ABERDEEN       LGT SNOW  27  23  85 NE17      29.78S FOG     WCI  14
MITCHELL       FAIR      28  27  96 NW5       29.71F WCI  23
PIERRE         LGT RAIN  34  31  88 NE6       29.72R
MOBRIDGE       CLOUDY    27  21  78 NE13      29.75F WCI  16
RAPID CITY     FAIR      26  19  74 N9        29.68S WCI  17
$$

  *****  SOME WEATHER IN NEARBY STATES *****

CITY           SKY/WX    TMP DP  RH WIND       PRES   REMARKS
GLASGOW MT     CLOUDY    14   9  80 E10       29.76S WCI   1
GREAT FALLS MT FAIR      20  13  74 S13       29.58R WCI   7
CHEYENNE WY    CLOUDY    27  16  63 NW14G22   29.65F WCI  16
SCOTTSBLUFF NE MOCLDY    28  25  88 W6        29.69S WCI  22
OMAHA NE       CLOUDY    42  30  62 CALM      29.72F
DES MOINES IA  FAIR      48  31  51 E9        29.78F
DAVENPORT IA   CLOUDY    46  37  71 NE10      29.89F
CHICAGO IL     CLOUDY    47  38  71 SE10      30.01F
EAU CLAIRE WI  MOCLDY    37  28  70 SE3       29.89F
LA CROSSE WI   MOCLDY    40  32  73 SE7       29.91F
$$

  *****  SOME NATIONAL WEATHER *****

CITY           SKY/WX    TMP DP  RH WIND       PRES   REMARKS
LA GUARDIA NY  CLOUDY    50  30  46 S3        30.39S
RALEIGH NC     CLOUDY    59  45  59 SE9       30.34F
ATLANTA GA     CLOUDY    51  48  89 E8        30.28S
NEW ORLEANS LA MOCLDY    71  69  93 SE10      30.13S
OKLAHOMA CITY  MOCLDY    60  59  96 S13       29.81F FOG
ALBUQUERQUE NM MOCLDY    47  33  58 W6        29.90S
SALT LAKE CITY MOCLDY    28  23  81 SE6       29.83R WCI  22
LOS ANGELES CA FAIR      55  48  77 W8G20     29.85S
BOISE ID       MOCLDY    30  24  78 SE9       29.79R WCI  22
SEATTLE WA     MOCLDY    35  33  92 SE8       29.75S
$$

*** WEATHER ACROSS MANITOBA...SASKATCHEWAN AND ONTARIO ***
                ***ONTARIO***

CITY           SKY/WX    TMP DP  RH WIND       PRES   REMARKS
GERALDTON      CLOUDY    14   9  79 VRB2      29.94S
THUNDER BAY    CLOUDY    23  21  93 CALM      29.96F
SIOUX LOOKOUT  MOCLDY    14  10  85 N5        29.93R WCI   6
TORONTO        PTCLDY    37  27  65 SE6       30.26R
BIG TROUT LK   CLEAR     -8 -11  84 NW6       29.95R WCI -21
PICKLE LAKE    NOT AVBL
DRYDEN         FLURRIES  14  10  85 N6        29.92S WCI   5
KENORA         FLURRIES  12   5  73 N6        29.94R WCI   3
$$
                *** MANITOBA***

CITY           SKY/WX    TMP DP  RH WIND       PRES   REMARKS
BRANDON        PTCLDY    -8 -13  77 N2        29.95S
DAUPHIN        CLEAR      0  -6  78 SW5       29.97S WCI -10
ISLAND LAKE    CLEAR    -17 -22  76 CALM      29.99R
PILOT MOUND      N/A      5   3  92 E3          N/A
THE PAS        CLEAR      1  -8  66 SE10      29.90F WCI -14
THOMPSON       CRYSTALS -29 -35  75 CALM      29.97R
WINNIPEG       CLEAR      5   0  78 NE6       30.00F WCI  -6
LYNN LAKE      CLEAR    -27 -31  83 VRB2      29.88S
CHURCHILL      CRYSTALS -24 -29  76 NW14G21   29.97R WCI -49
GILLAM         CLEAR    -20 -29  63 W8        29.98S WCI -39
$$
                ***SASKATCHEWAN***

CITY           SKY/WX    TMP DP  RH WIND       PRES   REMARKS
ESTEVAN        CLEAR      0  -4  85 E7        29.86F WCI -13
KINDERSLEY     MOCLDY    10   3  72 E8        29.72S WCI  -1
LLOYDMINSTER   PTCLDY     7   1  78 SW8       29.70S WCI  -6
PRINCE ALBERT  PTCLDY     3  -2  78 SW5       29.81R WCI  -6
REGINA         CLEAR      3   0  85 SE12      29.84S WCI -13
YORKTON        CLEAR      0  -6  78 S8        29.89S WCI -15
N. BATTLEFORD  CLEAR      3  -2  78 SE6       29.78S WCI  -8
LA RONGE       CLEAR    -18 -24  76 CALM      29.85S
SASKATOON      PTCLDY     9   1  72 SE6       29.81S WCI  -1
SWIFT CURRENT  CLOUDY    10   7  85 SE10      29.68F WCI  -3
$$
NOTE: THESE ARE AUTOMATED STATIONS WITH LIMITED QUALITY CONTROL
      "FAIR" INDICATES FEW OR NO CLOUDS BELOW 12,000 FEET WITH NO
      SIGNIFICANT WEATHER AND/OR OBSTRUCTIONS TO VISIBILITY.
      SKY/WX - SKY CONDITION AND SIGNIFICANT WEATHER.
      TMP - AIR TEMPERATURE.    DP   - DEWPOINT TEMPERATURE.
      RH  - RELATIVE HUMIDITY.  PRES - PRESSURE.
      HX  - HEAT INDEX.         WCI  - WIND CHILL INDEX.
$




USA.gov is the U.S. government's official web portal to all federal, state and local government web resources and services.